sat.trackr.live / text

‹ back to catalog

STARLINK-31868

NORAD 59783 · 2024-093B

PAYLOAD ACTIVE UNKNOWN

§ Identity

Operator
Country
US
Launch date
2024-05-18
Launch site
AFETR
Launch vehicle
Mass (kg)
RCS (m²)

Purposes: comms

External: N2YO · Heavens-Above · Gunter

§ Orbital elements

Epoch: 2026-05-25T00:11:31.524000Z

Period
94.27 min
Inclination
43.0011°
Eccentricity
0.0001004
Mean motion
15.27574846 rev/d
Perigee alt
482.4 km
Apogee alt
483.8 km
Semi-major
6,861.2 km
B*
1.8969e-5
RAAN
134.6684°
Arg perigee
275.6306°
Mean anomaly
84.4432°
Rev number
11,440

§ Raw data

STARLINK-318681 59783U 24093B   26145.00800375  .00000260  00000+0  18969-4 0  99952 59783  43.0011 134.6684 0001004 275.6306  84.4432 15.27574846114403

JSON: /api/v1/satellites/59783 · /tle

For live sub-satellite position, see the globe view (requires WebGL).

§ Visibility from observer

Set your observer location to see the next 7 days of passes ≥ 10°. The values pass through the URL so the page stays shareable.

No JS? Fill the form by hand. The geolocation button needs JavaScript.